Temperature
21 21 20 20 20 20 20 20 20 20 19 19 19 19 18 18 18 18 18 17 17 17 17 16 16 16 16 16 16 15 15 15 15 15 14 14 14 14 14 14 14 14 14
21 21 20 19 19 19 19 19 19 19 19 19 19 19 18 18 18 18 17 17 17 17 16 16 16 16 16 16 15 15 15 15 15 14 14 14 14 14 14 14 14 13 13
21 20 20 19 19 19 19 19 19 19 19 19 18 18 18 18 18 17 17 17 17 16 16 16 16 16 16 15 15 15 15 15 14 14 14 14 13 13 13 13 13 13 13
20 20 19 19 18 18 18 18 18 18 18 18 18 18 18 18 17 17 17 16 16 16 16 16 15 15 15 15 15 14 14 14 14 14 14 13 13 13 13 13 13 13 13
19 19 19 18 18 18 17 17 18 18 18 18 18 18 17 17 17 17 16 16 16 16 16 15 15 15 15 15 14 14 14 14 14 13 13 13 13 12 12 12 12 12 12
18 18 18 18 18 17 17 17 17 17 17 17 17 17 17 17 17 16 16 16 16 16 15 15 15 15 15 14 14 14 13 13 13 13 13 12 12 12 12 12 12 12 12
18 17 17 17 17 17 17 17 17 17 17 17 17 17 16 16 16 16 16 16 15 15 15 15 15 15 14 14 14 13 13 13 13 13 12 12 12 12 12 12 12 12 12
17 17 17 17 17 17 17 17 17 17 17 17 16 16 16 16 16 16 16 16 15 15 15 15 15 15 14 14 13 13 13 13 12 12 12 12 12 12 12 12 12 12 11
16 16 16 16 16 16 16 16 16 16 16 16 16 16 16 16 16 16 16 15 15 15 15 15 15 14 14 13 13 13 13 12 12 12 12 12 11 11 11 11 11 11 11
16 15 15 16 16 16 16 16 16 16 16 16 16 16 16 16 16 15 15 15 15 15 15 15 14 14 14 13 13 12 12 12 12 12 12 11 11 11 11 11 11 11 11
15 15 15 15 15 15 15 16 16 16 16 16 16 16 15 15 15 15 15 15 15 14 14 14 14 14 13 13 12 12 12 12 12 12 11 11 11 11 11 11 11 11 11
14 14 14 14 14 15 15 15 15 15 15 15 15 15 15 15 15 15 15 15 14 14 14 14 14 13 13 13 12 12 12 12 11 11 11 11 11 11 11 11 11 11 11
13 13 14 14 14 14 14 14 15 15 15 15 15 15 15 15 15 14 14 14 14 14 14 13 13 13 13 12 12 12 12 11 11 11 11 11 11 11 11 11 11 10 10
12 12 13 13 13 13 13 14 14 14 14 14 14 14 14 14 14 14 14 14 14 14 14 13 13 13 12 12 12 12 11 11 11 11 11 11 11 10 10 10 10 10 10
11 12 12 12 13 13 13 13 13 14 14 14 14 14 14 14 14 14 14 14 14 14 13 13 13 13 12 12 12 11 11 11 11 11 11 11 11 10 10 10 10 10 10
11 11 11 12 12 12 12 13 13 13 13 14 14 14 14 14 14 14 14 14 14 14 13 13 13 13 12 12 12 11 11 11 11 11 11 11 10 10 10 10 10 10 9
10 10 11 11 11 12 12 12 13 13 13 13 13 14 13 14 14 14 14 14 14 13 13 13 12 12 12 11 11 11 11 11 11 11 11 10 10 10 10 10 10 9 9
10 10 10 11 11 11 11 12 12 12 12 13 13 13 13 13 13 14 14 14 14 13 13 13 12 12 12 11 11 11 11 11 11 11 10 10 10 10 10 10 10 9 9
9 9 9 10 10 10 11 11 11 11 12 12 12 13 13 13 13 13 13 14 13 13 13 13 12 12 11 11 11 11 10 10 10 10 10 10 10 10 10 10 10 10 9
9 9 9 10 10 10 10 11 11 11 11 11 12 12 12 12 13 13 13 13 13 13 13 12 12 11 11 11 11 10 10 10 10 10 10 10 10 10 10 10 10 10 10
8 8 9 9 9 9 10 10 10 10 11 11 11 12 12 12 12 13 13 13 13 13 13 12 12 11 11 10 10 10 10 10 10 10 10 10 10 10 10 10 10 10 10
8 8 8 8 9 9 9 9 9 10 10 11 11 11 11 12 12 12 12 12 13 12 12 12 12 11 10 10 10 9 9 9 10 10 10 10 10 10 10 10 10 10 10
7 7 8 8 8 8 9 9 9 9 9 10 10 10 11 11 12 12 12 12 13 13 12 12 12 12 11 10 10 10 10 10 10 10 10 10 10 10 10 10 10 10 10
6 7 7 7 8 8 8 8 8 8 9 9 10 10 11 11 11 12 12 12 12 13 13 12 12 12 11 10 10 10 11 11 10 10 10 10 10 10 10 10 10 10 10
6 6 7 7 7 8 8 8 8 8 8 9 9 10 10 10 11 11 12 12 12 12 12 12 12 12 11 11 11 10 11 11 11 11 10 10 10 10 10 10 10 10 10
5 6 6 6 7 7 7 7 8 8 8 9 9 9 10 10 11 11 11 12 12 12 12 12 12 12 11 11 11 11 11 11 11 11 11 11 10 10 10 10 10 10 10
Wind_Speed
4 7 15 17 18 19 20 21 21 21 20 20 20 20 21 21 22 22 22 21 21 20 19 19 19 19 19 18 18 18 17 16 16 15 15 15 16 16 15 15 15 14 16
7 10 15 16 17 18 19 20 20 20 20 20 20 20 21 21 22 22 22 21 21 20 19 19 19 19 18 18 18 17 17 16 15 15 15 15 15 16 15 15 15 13 15
8 10 14 15 16 17 18 19 19 20 20 20 20 21 21 21 22 22 21 21 20 20 20 19 19 19 18 18 17 17 16 16 16 15 14 12 14 15 15 15 15 15 15
6 8 11 14 15 16 17 18 19 19 20 20 20 21 21 21 21 21 21 21 20 20 20 19 19 18 18 17 17 16 16 16 16 15 12 11 12 15 15 15 15 15 15
3 5 10 14 15 15 16 17 19 20 20 20 21 21 22 22 22 21 21 21 20 20 20 19 19 18 18 17 16 16 16 16 15 13 11 11 11 14 15 15 15 15 15
1 3 8 13 14 15 16 16 17 19 20 21 21 22 22 22 22 21 21 21 20 20 20 20 19 19 18 17 16 16 16 16 14 13 11 10 10 14 14 14 14 14 14
2 1 6 11 13 14 15 16 17 18 20 21 22 23 23 23 22 21 21 21 21 21 21 20 19 19 18 16 16 17 16 15 15 12 10 10 11 13 14 14 14 14 13
2 1 2 9 11 12 14 15 17 17 19 21 22 23 23 23 23 22 22 22 22 22 21 21 20 19 18 17 16 16 16 15 14 12 10 10 12 13 13 13 13 12 12
2 1 1 3 8 10 11 13 16 17 17 19 21 22 23 23 24 24 23 23 22 22 22 21 20 19 18 17 16 16 15 15 13 11 10 9 12 13 13 12 12 12 11
3 2 2 3 3 6 9 12 13 15 17 17 19 21 22 23 24 24 23 23 23 23 22 22 21 20 18 17 16 15 16 15 12 11 10 10 12 12 12 12 11 11 10
7 3 3 3 3 4 6 10 12 13 15 16 15 18 19 17 19 20 22 23 24 24 23 22 21 20 18 16 15 15 14 12 12 10 10 12 12 12 12 11 11 11 10
9 7 4 5 5 4 6 6 8 10 11 12 12 14 14 14 15 17 21 23 24 24 23 22 21 20 15 12 13 13 11 12 11 9 10 12 12 12 12 11 10 10 9
9 9 7 5 6 6 4 5 5 6 7 9 12 12 12 12 12 13 13 16 19 20 17 18 17 14 12 10 9 10 11 11 10 9 11 12 12 12 11 10 9 9 8
10 9 8 7 5 6 5 5 5 6 6 7 10 12 10 8 9 9 9 11 12 12 12 12 10 11 10 11 10 9 10 9 10 10 11 12 12 12 11 10 9 8 8
10 10 8 7 6 5 5 5 5 7 7 9 9 11 12 9 10 10 9 10 11 12 12 10 10 10 8 8 9 10 9 10 11 10 11 12 12 11 11 10 9 8 8
10 10 9 8 8 6 6 6 6 6 7 8 9 11 13 11 11 11 10 10 11 13 13 12 11 10 8 7 7 8 9 10 11 11 11 11 12 11 11 10 9 9 8
11 10 10 9 8 8 8 8 6 6 7 8 9 12 13 13 13 12 12 11 11 14 14 11 10 9 8 7 8 8 8 9 10 10 11 10 10 11 11 10 10 9 8
11 10 10 9 9 8 8 8 6 6 7 8 9 11 13 14 15 13 12 12 13 13 11 11 11 9 9 8 7 7 6 7 8 9 10 10 10 9 10 11 10 10 9
9 9 9 9 9 9 9 8 8 8 8 8 9 10 12 13 16 14 12 12 14 12 10 12 10 9 10 9 8 6 5 6 6 7 7 9 10 10 10 10 11 10 10
8 7 8 8 9 9 7 6 7 7 8 8 9 11 13 13 16 15 12 14 14 12 11 11 12 10 9 9 8 5 4 5 5 6 7 7 9 11 11 11 10 10 11
7 8 7 7 8 7 6 6 7 8 8 8 9 12 14 14 15 15 13 15 15 13 14 14 10 12 9 8 6 4 1 1 4 5 5 5 6 9 11 11 11 10 10
7 7 8 8 8 8 7 7 6 7 8 9 9 11 14 15 16 15 16 15 15 13 14 14 12 9 7 9 7 7 3 1 3 4 5 6 6 6 7 10 11 11 11
8 8 8 8 9 9 8 6 5 5 5 7 8 10 13 15 17 16 17 15 16 16 15 16 16 12 11 8 8 7 6 5 3 3 4 5 6 5 5 7 10 12 12
10 9 9 8 9 8 6 6 7 8 8 8 8 9 12 15 17 17 18 17 16 15 16 17 16 12 14 12 8 4 3 5 5 3 2 4 6 6 6 6 7 10 12
10 10 9 9 7 7 6 7 8 8 7 7 7 11 12 13 16 17 17 17 17 15 16 16 15 15 13 12 10 6 4 3 3 4 4 3 3 5 6 6 6 7 10
10 10 10 9 8 6 5 7 7 8 7 7 9 10 11 11 12 16 16 16 17 15 17 16 16 18 14 12 10 7 6 5 5 4 4 4 4 3 4 5 5 6 9
Wind_Direction
197 180 181 177 173 167 162 159 157 155 153 150 147 145 142 141 140 139 140 140 139 137 135 133 129 126 123 120 118 116 114 111 109 109 108 107 106 105 102 98 94 89 92
170 171 178 175 174 171 167 163 161 159 157 155 153 151 148 146 145 144 144 144 142 141 139 135 131 128 126 123 121 119 116 112 108 108 107 106 108 107 106 103 101 98 95
150 166 175 175 175 172 170 166 164 163 162 160 158 156 153 152 150 149 148 147 146 144 141 138 134 131 129 126 124 122 121 117 112 108 104 102 106 109 108 105 102 100 99
148 164 174 179 177 175 173 171 168 167 167 165 164 161 159 157 155 153 152 151 149 146 142 139 136 134 133 131 129 127 124 121 116 112 102 102 107 110 108 106 104 102 99
133 167 179 182 183 180 178 175 174 172 171 170 169 166 164 162 160 158 156 154 151 148 144 141 139 138 136 135 133 130 128 123 120 112 106 105 109 112 108 106 105 104 101
101 181 189 186 186 187 183 181 179 178 176 174 174 172 169 166 165 162 159 156 153 150 147 145 143 142 141 139 136 132 128 124 118 113 111 111 114 116 114 110 108 109 105
3 242 203 194 192 190 190 187 184 184 182 180 178 176 174 170 167 164 161 158 155 153 150 149 147 146 144 143 139 134 129 124 122 119 116 117 123 123 120 117 115 111 109
11 332 229 206 200 198 196 194 191 189 189 186 183 180 178 174 170 167 164 162 160 157 154 153 152 150 148 145 142 137 130 128 129 126 124 126 130 126 124 122 120 116 112
359 5 316 234 213 204 200 202 199 196 193 191 187 183 179 177 174 171 168 165 163 161 158 157 155 153 151 149 146 140 133 131 131 132 132 135 135 129 126 125 125 120 116
325 303 293 283 256 225 210 204 201 200 198 194 190 185 179 178 177 174 170 168 167 164 162 159 158 157 154 152 147 140 134 132 133 135 137 144 141 135 130 128 127 125 122
312 297 272 273 265 253 232 217 203 199 197 194 189 184 178 178 177 175 171 170 170 167 165 162 161 159 155 152 148 140 134 135 137 139 147 152 148 143 140 135 132 129 128
294 288 269 256 250 246 242 224 212 204 196 193 187 183 180 176 176 175 172 171 170 168 166 165 163 160 154 149 147 139 138 142 142 147 158 158 153 149 146 144 142 138 136
266 272 267 256 245 237 235 225 213 204 195 191 186 181 179 173 170 170 169 170 169 167 165 165 160 158 155 153 149 146 148 149 150 154 165 164 160 156 152 151 151 149 147
271 267 269 262 253 241 233 233 219 202 197 191 187 183 176 177 175 174 174 170 168 166 162 161 160 160 161 162 158 153 154 155 157 158 168 169 168 164 162 164 165 164 162
270 266 261 263 256 250 239 234 235 210 202 194 188 187 182 182 180 178 178 175 172 168 168 165 165 166 166 167 164 159 157 160 161 162 167 171 172 173 173 176 179 180 178
274 269 257 255 253 247 241 232 230 218 207 198 192 192 189 185 183 180 179 180 178 175 173 170 170 170 171 168 167 163 162 164 165 166 170 175 179 181 183 186 190 191 192
275 271 258 248 244 242 237 229 228 221 210 204 197 193 192 191 186 183 181 182 180 177 174 170 169 165 167 168 169 166 164 166 167 170 174 178 186 192 194 196 196 200 202
279 276 268 253 247 242 238 231 222 221 215 209 200 195 194 196 192 184 184 183 180 176 177 174 171 168 170 168 169 170 167 169 172 176 179 183 188 196 202 202 203 210 215
283 278 277 257 244 242 237 233 225 222 217 211 202 198 196 198 196 187 188 184 179 177 179 178 174 170 169 168 168 166 168 172 179 181 186 191 194 197 201 205 208 215 223
288 282 278 274 253 244 236 233 230 229 219 212 207 202 198 199 198 189 189 185 178 177 179 178 172 169 167 165 161 157 168 180 181 187 193 196 200 202 203 208 210 217 224
303 301 289 281 265 244 231 224 223 229 222 216 212 207 201 200 201 191 191 186 181 182 182 174 170 167 165 156 138 130 78 194 199 201 194 192 203 205 203 207 209 215 224
308 310 298 278 272 253 232 225 221 227 228 216 214 213 205 200 201 196 186 189 184 181 180 178 169 165 167 164 152 145 151 245 246 216 203 200 205 202 204 209 210 213 221
323 315 301 284 275 261 245 230 230 233 236 220 214 214 207 201 202 197 188 189 186 183 184 183 177 167 170 173 166 156 160 197 207 234 215 207 203 204 211 212 213 217 220
324 319 309 290 281 268 250 229 222 231 235 231 221 219 208 205 201 196 190 189 189 185 184 186 179 172 169 174 176 176 159 149 157 185 240 221 209 211 213 214 215 220 222
326 326 318 303 285 270 250 235 227 233 241 237 225 220 211 207 198 195 193 191 189 187 185 186 180 175 176 176 175 166 153 142 136 152 194 209 223 226 216 215 215 221 224
335 330 324 318 300 278 258 241 234 232 235 234 228 219 208 204 197 196 195 193 189 187 187 187 184 179 179 177 176 171 167 164 171 162 178 189 206 231 223 220 218 219 222
Height
1482 1482 1483 1484 1485 1487 1488 1489 1491 1494 1496 1498 1500 1502 1503 1505 1507 1508 1509 1511 1512 1514 1515 1516 1517 1518 1518 1519 1519 1520 1520 1521 1521 1521 1522 1522 1522 1522 1522 1522 1522 1523 1523
1481 1482 1482 1483 1485 1486 1488 1489 1491 1493 1495 1497 1499 1501 1503 1505 1506 1508 1509 1511 1512 1514 1515 1516 1517 1518 1518 1519 1519 1520 1520 1521 1521 1522 1522 1522 1522 1522 1523 1523 1523 1523 1524
1481 1481 1482 1483 1485 1486 1487 1489 1490 1492 1494 1497 1499 1501 1502 1504 1506 1507 1509 1510 1512 1513 1514 1516 1516 1517 1518 1519 1519 1520 1520 1521 1521 1522 1522 1522 1523 1523 1524 1524 1524 1524 1524
1481 1481 1481 1483 1484 1485 1487 1488 1490 1491 1493 1496 1498 1500 1501 1503 1505 1506 1508 1510 1511 1512 1514 1515 1516 1517 1517 1518 1519 1520 1521 1521 1521 1522 1522 1523 1523 1524 1524 1525 1525 1525 1525
1480 1480 1481 1482 1483 1485 1486 1487 1489 1490 1492 1494 1496 1498 1500 1502 1504 1506 1507 1509 1510 1512 1513 1514 1515 1516 1517 1518 1519 1520 1520 1521 1522 1522 1523 1524 1524 1525 1525 1525 1525 1525 1525
1479 1479 1480 1481 1482 1484 1485 1486 1488 1489 1491 1493 1495 1497 1499 1501 1502 1504 1506 1508 1509 1511 1512 1513 1514 1515 1516 1517 1518 1519 1520 1521 1522 1522 1523 1524 1524 1525 1525 1526 1526 1526 1526
1477 1478 1479 1480 1481 1482 1483 1485 1486 1488 1490 1491 1493 1495 1497 1499 1501 1503 1505 1506 1508 1509 1511 1512 1513 1514 1516 1517 1518 1519 1520 1521 1522 1523 1523 1524 1525 1525 1526 1526 1526 1526 1527
1475 1475 1477 1478 1479 1480 1481 1482 1484 1486 1487 1490 1491 1493 1495 1497 1499 1501 1503 1505 1506 1508 1509 1511 1512 1513 1515 1516 1517 1518 1519 1520 1522 1523 1524 1524 1525 1526 1526 1526 1527 1527 1527
1472 1472 1473 1475 1477 1478 1478 1480 1481 1483 1485 1487 1489 1491 1493 1495 1497 1499 1501 1503 1504 1506 1508 1509 1511 1512 1514 1515 1517 1518 1519 1520 1521 1522 1523 1524 1525 1526 1526 1526 1527 1527 1527
1469 1469 1470 1471 1473 1474 1476 1477 1478 1479 1481 1484 1486 1488 1490 1492 1494 1496 1498 1500 1502 1504 1506 1508 1509 1511 1513 1514 1516 1517 1518 1520 1521 1522 1523 1524 1525 1526 1526 1526 1527 1527 1527
1465 1466 1466 1467 1468 1470 1472 1473 1474 1476 1477 1480 1482 1485 1487 1489 1491 1493 1495 1498 1500 1502 1504 1506 1508 1510 1511 1513 1514 1516 1517 1519 1520 1522 1523 1524 1525 1525 1526 1526 1526 1527 1527
1460 1461 1462 1463 1464 1466 1467 1468 1470 1472 1473 1475 1478 1480 1483 1485 1487 1490 1492 1495 1497 1500 1502 1504 1506 1508 1510 1511 1513 1515 1516 1518 1519 1521 1522 1523 1524 1525 1525 1526 1526 1526 1527
1456 1456 1457 1458 1459 1460 1461 1463 1464 1466 1468 1470 1473 1475 1478 1481 1483 1486 1489 1491 1494 1496 1499 1501 1503 1505 1507 1509 1511 1513 1515 1517 1518 1520 1521 1523 1524 1524 1525 1525 1526 1526 1526
1452 1450 1451 1452 1453 1454 1456 1457 1459 1460 1462 1465 1467 1470 1473 1475 1478 1481 1484 1487 1489 1492 1494 1497 1500 1503 1505 1508 1510 1512 1513 1515 1517 1518 1520 1521 1523 1523 1524 1524 1525 1525 1525
1447 1446 1445 1446 1447 1448 1450 1451 1453 1454 1456 1459 1461 1464 1467 1470 1472 1476 1479 1482 1485 1487 1490 1494 1497 1500 1503 1505 1507 1510 1512 1514 1515 1517 1518 1520 1521 1522 1523 1523 1524 1524 1524
1441 1440 1439 1440 1441 1442 1443 1445 1446 1448 1450 1452 1455 1458 1461 1464 1467 1470 1474 1477 1480 1483 1486 1489 1493 1497 1500 1503 1505 1507 1510 1512 1514 1515 1517 1518 1519 1520 1521 1522 1523 1523 1523
1434 1434 1433 1433 1434 1435 1436 1438 1440 1441 1443 1446 1448 1451 1455 1458 1461 1464 1468 1471 1475 1478 1482 1485 1489 1493 1497 1500 1503 1505 1508 1510 1512 1513 1515 1516 1517 1519 1520 1521 1521 1522 1522
1427 1426 1426 1426 1427 1428 1429 1431 1432 1435 1436 1438 1441 1444 1447 1451 1455 1458 1461 1465 1469 1473 1477 1480 1484 1488 1492 1496 1499 1502 1505 1507 1509 1511 1513 1514 1515 1516 1518 1519 1519 1520 1520
1421 1420 1419 1420 1420 1421 1422 1423 1424 1427 1429 1431 1434 1437 1440 1444 1448 1451 1455 1459 1463 1467 1471 1475 1479 1483 1487 1492 1496 1500 1502 1505 1507 1508 1510 1512 1513 1514 1515 1516 1517 1518 1518
1416 1414 1413 1413 1414 1414 1415 1416 1418 1420 1422 1424 1426 1429 1433 1437 1442 1445 1449 1453 1457 1461 1465 1470 1473 1478 1483 1488 1493 1497 1500 1503 1505 1506 1507 1509 1510 1512 1513 1514 1515 1515 1516
1409 1408 1406 1406 1407 1408 1408 1409 1410 1412 1413 1416 1419 1422 1426 1430 1435 1438 1442 1446 1450 1454 1458 1463 1468 1473 1478 1484 1489 1493 1498 1500 1502 1503 1504 1506 1507 1509 1510 1511 1512 1513 1513
1404 1402 1401 1401 1400 1401 1402 1402 1404 1405 1406 1408 1411 1414 1418 1423 1427 1431 1434 1438 1441 1447 1452 1457 1462 1466 1472 1477 1481 1487 1493 1497 1497 1499 1501 1502 1504 1505 1507 1508 1509 1510 1510
1399 1397 1396 1395 1395 1394 1395 1396 1397 1399 1400 1401 1403 1406 1410 1415 1419 1423 1427 1432 1435 1440 1444 1450 1454 1459 1464 1472 1477 1480 1485 1488 1492 1495 1496 1498 1500 1502 1503 1505 1506 1507 1507
1396 1393 1391 1389 1388 1387 1387 1388 1389 1391 1391 1393 1396 1399 1402 1406 1410 1416 1420 1425 1429 1433 1438 1443 1447 1453 1458 1464 1471 1475 1479 1481 1485 1488 1492 1494 1496 1498 1500 1501 1502 1503 1504
1394 1390 1387 1384 1382 1381 1382 1383 1384 1385 1386 1388 1390 1392 1394 1398 1403 1408 1412 1418 1423 1426 1431 1437 1441 1447 1453 1457 1462 1468 1473 1476 1479 1481 1485 1488 1492 1494 1496 1498 1499 1500 1500
1390 1387 1383 1380 1378 1376 1376 1377 1377 1379 1380 1382 1383 1384 1386 1391 1395 1400 1406 1411 1416 1420 1425 1430 1435 1441 1446 1453 1458 1462 1467 1470 1473 1477 1479 1482 1486 1489 1492 1494 1495 1496 1496